"2010-09-22 00:00:00",181741,2.796,42.81,2.011,0.189,19.38,108.0788,19.96,20.82,39.44,0,110.9,13.18,20.78,4.8
"2010-09-22 00:00:30",181742,2.464,42.5,3.305,0.082,19.15,108.0563,19.9,20.79,39.4,0,110.9,13.18,20.73,4.5
"2010-09-22 00:01:00",181743,2.236,40.78,4.976,0.15,19.28,108.058,19.91,20.79,39.52,0,110.9,13.18,20.73,2.8
"2010-09-22 00:01:30",181744,2.153,38.66,7.72,0.24,19.22,108.0607,19.92,20.78,39.67,0,110.9,13.18,20.74,0.7
"2010-09-22 00:02:00",181745,2.743,32.59,8.01,0.287,19.15,108.0619,19.92,20.76,39.72,0,110.9,13.18,20.74,354.6
"2010-09-22 00:02:30",181746,2.477,42.3,7.042,0.368,19.2,108.0628,19.92,20.77,39.34,0,110.9,13.18,20.74,4.3
"2010-09-22 00:03:00",181747,3,57.66,7.152,0.229,19.11,108.0634,19.92,20.77,39.26,0,110.9,13.18,20.74,19.7
"2010-09-22 00:03:30",181748,3.218,54.56,3.676,0.274,19.2,108.0634,19.92,20.78,39.04,0,110.9,13.18,20.74,16.6
"2010-09-22 00:04:00",181749,2.961,56.47,2.344,0.214,19.14,108.0806,19.97,20.79,38.97,0,110.9,13.18,20.79,18.5
"2010-09-22 00:04:30",181750,3.292,53.72,4.097,0.295,19.15,108.0884,19.99,20.81,38.81,0,110.9,13.18,20.81,15.7
"2010-09-22 00:05:00",181751,3.88,50.29,1.682,0.155,19.14,108.0969,20.01,20.82,38.76,0,110.9,13.18,20.83,12.3
"2010-09-22 00:05:30",181752,3.564,53.96,3.326,0.172,19.26,108.0972,20.01,20.84,38.48,0,110.9,13.18,20.83,16.0
"2010-09-22 00:06:00",181753,3.208,53.23,8.43,0.165,19.2,108.0972,20.01,20.85,38.59,0,110.9,13.18,20.83,15.2
"2010-09-22 00:06:30",181754,3.103,54.84,5.879,0.375,19.25,108.0972,20.01,20.86,38.68,0,110.9,13.18,20.83,16.8
"2010-09-22 00:07:00",181755,3.612,55.3,2.19,0.139,19.28,108.0972,20.01,20.87,38.44,0,110.9,13.18,20.83,17.3
"2010-09-22 00:07:30",181756,3.829,46.97,3.951,0.308,19.2,108.0972,20.01,20.88,38.89,0,110.9,13.18,20.83,9.0
"2010-09-22 00:08:00",181757,3.683,47.12,2.755,0.143,19.11,108.0972,20.01,20.87,39.02,0,110.9,13.18,20.83,9.1
"2010-09-22 00:08:30",181758,3.532,46.33,2.622,0.143,19.18,108.087,19.98,20.85,39.11,0,110.9,13.18,20.80,8.3
"2010-09-22 00:09:00",181759,3.608,40.73,1.253,0.056,19.28,108.0646,19.93,20.84,39.22,0,110.9,13.18,20.75,2.7
"2010-09-22 00:09:30",181760,3.275,42.41,1.595,0.252,19.17,108.0634,19.92,20.81,39.38,0,110.8,13.18,20.74,4.4
"2010-09-22 00:10:00",181761,3.321,39.48,2.756,0.131,19.17,108.0567,19.91,20.79,39.42,0,110.8,13.18,20.73,1.5
"2010-09-22 00:10:30",181762,3.448,43.13,2.912,0.158,19.27,108.0305,19.84,20.78,39.43,0,110.8,13.18,20.66,5.1
"2010-09-22 00:11:00",181763,3.689,43.81,1.216,0.159,19.35,108.03,19.84,20.75,39.43,0,110.8,13.19,20.66,5.8
"2010-09-22 00:11:30",181764,3.44,45.3,3.175,0.316,19.2,108.03,19.84,20.76,39.51,0,110.8,13.19,20.66,7.3
"2010-09-22 00:12:00",181765,3.094,41.49,2.948,0.208,19.35,108.0303,19.84,20.74,39.42,0,110.8,13.19,20.66,3.5
"2010-09-22 00:12:30",181766,2.87,39.04,3.02,0.246,19.3,108.0312,19.84,20.75,39.36,0,110.8,13.19,20.66,1.0
"2010-09-22 00:13:00",181767,2.733,33.29,3.97,0.338,19.18,108.0253,19.82,20.74,39.83,0,110.8,13.19,20.65,355.3
"2010-09-22 00:13:30",181768,2.876,34.73,3.681,0.434,19.19,107.9986,19.76,20.7,40.05,0,110.9,13.19,20.58,356.7
"2010-09-22 00:14:00",181769,3.635,36.17,1.441,0.157,19.23,107.9996,19.76,20.68,39.97,0,110.9,13.19,20.58,358.2
"2010-09-22 00:14:30",181770,3.676,38.57,2.311,0.306,19.25,107.9979,19.75,20.67,39.87,0,110.9,13.19,20.58,0.6
"2010-09-22 00:15:00",181771,2.904,35.44,2.773,0.34,19.32,107.9922,19.74,20.65,39.76,0,110.9,13.19,20.56,357.4
"2010-09-22 00:15:30",181772,2.992,35.18,2.261,0.333,19.37,107.9917,19.74,20.63,39.84,0,110.9,13.19,20.56,357.2
"2010-09-22 00:16:00",181773,2.805,34.93,1.751,0.251,19.27,107.9818,19.71,20.64,39.9,0,110.9,13.19,20.53,356.9
"2010-09-22 00:16:30",181774,2.55,31.3,2.909,0.263,19.32,107.9776,19.7,20.63,39.88,0,110.9,13.19,20.52,353.3
"2010-09-22 00:17:00",181775,2.726,32.28,5.866,0.432,19.36,107.9776,19.7,20.61,39.95,0,110.8,13.19,20.52,354.3
"2010-09-22 00:17:30",181776,2.692,34.8,2.522,0.303,19.28,107.9807,19.71,20.61,39.91,0,110.8,13.19,20.53,356.8
"2010-09-22 00:18:00",181777,2.569,33.43,2.26,0.282,19.3,107.9865,19.73,20.61,39.96,0,110.8,13.19,20.55,355.4
"2010-09-22 00:18:30",181778,2.554,33.67,3.919,0.379,19.28,107.9859,19.72,20.6,40.01,0,110.8,13.2,20.54,355.7
"2010-09-22 00:19:00",181779,2.562,31.03,3.42,0.454,19.3,107.9892,19.73,20.59,40.1,0,110.8,13.2,20.55,353.0
"2010-09-22 00:19:30",181780,3.022,34.42,2.169,0.287,19.36,107.9901,19.73,20.6,39.99,0,110.8,13.2,20.56,356.4
"2010-09-22 00:20:00",181781,2.397,31.16,3.249,0.347,19.3,107.9923,19.74,20.58,39.98,0,110.8,13.2,20.56,353.2
"2010-09-22 00:20:30",181782,2.439,30.99,2.146,0.289,19.33,107.9954,19.75,20.57,39.96,0,110.8,13.2,20.57,353.0
"2010-09-22 00:21:00",181783,2.526,32.3,2.411,0.238,19.32,107.9911,19.74,20.58,39.96,0,110.8,13.2,20.56,354.3
"2010-09-22 00:21:30",181784,3.092,35.39,1.889,0.296,19.35,107.9926,19.74,20.57,39.92,0,110.8,13.2,20.56,357.4
"2010-09-22 00:22:00",181785,2.608,31.96,2.088,0.358,19.32,107.9879,19.73,20.58,39.96,0,110.8,13.2,20.55,354.0
"2010-09-22 00:22:30",181786,3.363,37.86,3.029,0.314,19.42,107.9843,19.72,20.55,39.86,0,110.8,13.2,20.54,359.9
"2010-09-22 00:23:00",181787,3.383,39.33,2.259,0.151,19.35,107.9956,19.75,20.56,39.88,0,110.8,13.19,20.57,1.3
"2010-09-22 00:23:30",181788,3.495,39.7,2.355,0.141,19.4,107.9944,19.75,20.57,39.89,0,110.8,13.19,20.57,1.7
"2010-09-22 00:24:00",181789,3.619,42.84,1.507,0.071,19.53,107.997,19.75,20.56,39.84,0,110.8,13.19,20.57,4.8
"2010-09-22 00:24:30",181790,3.687,44.17,2.004,0.113,19.45,107.9986,19.76,20.58,39.84,0,110.8,13.19,20.58,6.2
"2010-09-22 00:25:00",181791,3.528,44.33,2.542,0.222,19.4,107.9986,19.76,20.58,39.86,0,110.8,13.19,20.58,6.3
"2010-09-22 00:25:30",181792,3.561,40.94,1.665,0.165,19.38,107.9986,19.76,20.58,39.95,0,110.8,13.19,20.58,2.9
"2010-09-22 00:26:00",181793,3.685,39.17,1.266,0.1,19.27,107.9981,19.75,20.57,39.99,0,110.8,13.19,20.58,1.2
"2010-09-22 00:26:30",181794,3.74,40.74,1.636,0.154,19.4,107.9913,19.74,20.58,39.93,0,110.8,13.19,20.56,2.7
"2010-09-22 00:27:00",181795,3.798,45.67,2.584,0.136,19.47,107.993,19.74,20.58,39.79,0,110.8,13.19,20.56,7.7
"2010-09-22 00:27:30",181796,3.759,41.61,1.317,0.096,19.38,107.9978,19.75,20.59,39.89,0,110.8,13.19,20.57,3.6
"2010-09-22 00:28:00",181797,3.564,42.97,2.287,0.112,19.3,107.9815,19.71,20.57,40.08,0,110.8,13.2,20.53,5.0
"2010-09-22 00:28:30",181798,3.37,41.5,1.793,0.07,19.34,107.9657,19.67,20.57,40.04,0,110.8,13.2,20.49,3.5
"2010-09-22 00:29:00",181799,3.173,39.79,1.723,0.107,19.31,107.9649,19.67,20.56,40.01,0,110.8,13.2,20.49,1.8
"2010-09-22 00:29:30",181800,3.066,44.54,2.948,0.154,19.46,107.9649,19.67,20.56,39.92,0,110.8,13.2,20.49,6.5
"2010-09-22 00:30:00",181801,2.968,44.36,2.407,0.081,19.46,107.9649,19.67,20.57,39.93,0,110.8,13.2,20.49,6.4
"2010-09-22 00:30:30",181802,3.019,37.9,2.832,0.214,19.32,107.9649,19.67,20.55,40.16,0,110.8,13.2,20.49,359.9
"2010-09-22 00:31:00",181803,3.079,37.24,2.274,0.301,19.39,107.9649,19.67,20.56,40.24,0,110.8,13.2,20.49,359.2
"2010-09-22 00:31:30",181804,3.328,39.61,2.463,0.204,19.31,107.964,19.67,20.55,40.36,0,110.8,13.2,20.49,1.6
"2010-09-22 00:32:00",181805,3.348,38.8,2.538,0.169,19.35,107.9548,19.64,20.54,40.22,0,110.8,13.2,20.46,0.8
"2010-09-22 00:32:30",181806,3.499,41.1,1.87,0.094,19.36,107.9466,19.62,20.53,40.07,0,110.8,13.2,20.44,3.1
"2010-09-22 00:33:00",181807,3.495,42.54,0.793,0.046,19.44,107.9534,19.64,20.53,39.83,0,110.8,13.21,20.46,4.5
"2010-09-22 00:33:30",181808,3.372,47.48,1.836,0.093,19.49,107.9644,19.67,20.53,39.57,0,110.8,13.21,20.49,9.5
"2010-09-22 00:34:00",181809,3.536,48.18,1.392,0.054,19.45,107.9685,19.68,20.55,39.48,0,110.8,13.21,20.50,10.2
"2010-09-22 00:34:30",181810,3.449,51.23,3.634,0.104,19.5,107.9752,19.7,20.56,39.3,0,110.8,13.21,20.52,13.2
"2010-09-22 00:35:00",181811,3.487,50.62,2.568,0.092,19.62,107.9957,19.75,20.6,39.17,0,110.8,13.21,20.57,12.6
"2010-09-22 00:35:30",181812,3.494,48.7,0.801,0.059,19.55,108.015,19.8,20.6,39.12,0,110.8,13.21,20.62,10.7
"2010-09-22 00:36:00",181813,3.554,47.13,1.993,0.094,19.37,108.0199,19.81,20.63,39.08,0,110.8,13.21,20.63,9.1
"2010-09-22 00:36:30",181814,3.672,45.98,1.666,0.147,19.42,108.0239,19.82,20.63,39.21,0,110.8,13.21,20.64,8.0
"2010-09-22 00:37:00",181815,3.333,41.95,7.004,0.375,19.3,108.0228,19.82,20.62,39.51,0,110.8,13.21,20.64,4.0
"2010-09-22 00:37:30",181816,3.674,40.7,2.309,0.147,19.41,107.9969,19.75,20.62,39.48,0,110.8,13.21,20.57,2.7
"2010-09-22 00:38:00",181817,4.094,43.17,2.296,0.216,19.4,107.9922,19.74,20.61,39.4,0,110.8,13.21,20.56,5.2
"2010-09-22 00:38:30",181818,4.003,41.4,3.112,0.245,19.26,107.9931,19.74,20.61,39.4,0,110.8,13.21,20.56,3.4
"2010-09-22 00:39:00",181819,3.832,44.97,3.97,0.322,19.36,107.9944,19.75,20.61,39.54,0,110.8,13.21,20.57,7.0
"2010-09-22 00:39:30",181820,4.395,48.76,5.9,0.213,19.44,108.0022,19.77,20.61,39.15,0,110.8,13.21,20.59,10.8
"2010-09-22 00:40:00",181821,4.092,41.11,4.157,0.318,19.29,108.0077,19.78,20.62,39.49,0,110.8,13.21,20.60,3.1
"2010-09-22 00:40:30",181822,4.77,46.43,2.426,0.314,19.34,108.0024,19.77,20.63,39.3,0,110.8,13.2,20.59,8.4
"2010-09-22 00:41:00",181823,4.316,41.96,3.19,0.134,19.27,108.0041,19.77,20.63,39.33,0,110.8,13.2,20.59,4.0
"2010-09-22 00:41:30",181824,4.288,41.78,1.891,0.137,19.25,108.0028,19.77,20.63,39.36,0,110.8,13.2,20.59,3.8
"2010-09-22 00:42:00",181825,4.052,41.49,2.993,0.127,19.28,108.0022,19.77,20.64,39.36,0,110.8,13.2,20.59,3.5
"2010-09-22 00:42:30",181826,4.309,41.02,2.36,0.17,19.3,108.0016,19.76,20.63,39.5,0,110.8,13.2,20.58,3.0
"2010-09-22 00:43:00",181827,4.294,41.25,2.174,0.225,19.3,108.0013,19.76,20.63,39.47,0,110.8,13.2,20.58,3.2
"2010-09-22 00:43:30",181828,4.12,41.27,2.467,0.166,19.26,108.0013,19.76,20.63,39.54,0,110.8,13.2,20.58,3.3
"2010-09-22 00:44:00",181829,4.197,41.02,2.648,0.071,19.38,108.0013,19.76,20.61,39.42,0,110.8,13.2,20.58,3.0
"2010-09-22 00:44:30",181830,4.118,40.25,1.891,0.107,19.34,108.0013,19.76,20.62,39.52,0,110.8,13.2,20.58,2.2
"2010-09-22 00:45:00",181831,4.352,37.99,2.805,0.115,19.29,108.0013,19.76,20.62,39.59,0,110.8,13.21,20.58,360.0
"2010-09-22 00:45:30",181832,4.382,39.1,1.653,0.108,19.3,108.0013,19.76,20.63,39.6,0,110.7,13.21,20.58,1.1
"2010-09-22 00:46:00",181833,4.338,38.95,2.082,0.209,19.27,108.0013,19.76,20.63,39.68,0,110.8,13.21,20.58,1.0
"2010-09-22 00:46:30",181834,3.436,32.88,2.298,0.43,19.26,108.0008,19.76,20.61,40.13,0,110.8,13.21,20.58,354.9
"2010-09-22 00:47:00",181835,3.77,31.86,5.195,0.465,19.23,107.9808,19.71,20.58,40.25,0,110.8,13.21,20.53,353.9
"2010-09-22 00:47:30",181836,3.361,30.66,3.856,0.352,19.31,107.9676,19.68,20.58,40.36,0,110.8,13.22,20.50,352.7
"2010-09-22 00:48:00",181837,3.393,32.18,2.94,0.432,19.32,107.9676,19.68,20.55,40.36,0,110.8,13.22,20.50,354.2
"2010-09-22 00:48:30",181838,3.22,30.09,3.04,0.439,19.31,107.96,19.66,20.53,40.48,0,110.8,13.22,20.48,352.1
"2010-09-22 00:49:00",181839,3.329,31.07,3.395,0.567,19.35,107.9409,19.61,20.54,40.47,0,110.7,13.22,20.43,353.1
"2010-09-22 00:49:30",181840,3.542,32.38,2.234,0.529,19.34,107.9344,19.59,20.5,40.55,0,110.8,13.22,20.41,354.4
"2010-09-22 00:50:00",181841,3.576,31.96,3.788,0.667,19.37,107.9338,19.59,20.5,40.68,0,110.8,13.22,20.41,354.0
"2010-09-22 00:50:30",181842,3.398,30.03,2.906,0.349,19.28,107.9338,19.59,20.48,40.89,0,110.8,13.22,20.41,352.0
"2010-09-22 00:51:00",181843,3.837,33.05,3.664,0.486,19.31,107.933,19.59,20.47,40.84,0,110.8,13.22,20.41,355.0
"2010-09-22 00:51:30",181844,3.141,27.96,2.964,0.325,19.26,107.9212,19.56,20.47,41.05,0,110.8,13.22,20.38,350.0
"2010-09-22 00:52:00",181845,3.101,27.63,2.014,0.191,19.23,107.9006,19.5,20.44,41.28,0,110.8,13.22,20.32,349.6
"2010-09-22 00:52:30",181846,3.094,27.36,2.496,0.216,19.27,107.9001,19.5,20.41,41.3,0,110.8,13.22,20.32,349.4
"2010-09-22 00:53:00",181847,3.501,30.7,3.009,0.467,19.28,107.8995,19.5,20.4,41.32,0,110.8,13.22,20.32,352.7
"2010-09-22 00:53:30",181848,3.339,29.63,3.289,0.414,19.24,107.8854,19.47,20.39,41.54,0,110.8,13.22,20.29,351.6
"2010-09-22 00:54:00",181849,4.072,33.25,3.598,0.543,19.31,107.8711,19.43,20.36,41.39,0,110.8,13.22,20.25,355.2
"2010-09-22 00:54:30",181850,3.452,30.55,2.336,0.405,19.32,107.8666,19.42,20.35,41.42,0,110.8,13.22,20.24,352.5
"2010-09-22 00:55:00",181851,3.791,30.88,3.012,0.373,19.32,107.8663,19.42,20.35,41.38,0,110.7,13.22,20.24,352.9
"2010-09-22 00:55:30",181852,3.792,32.47,2.583,0.447,19.35,107.8669,19.42,20.34,41.27,0,110.8,13.22,20.24,354.5
"2010-09-22 00:56:00",181853,3.868,32.02,2.377,0.524,19.35,107.8675,19.42,20.34,41.32,0,110.8,13.22,20.24,354.0
"2010-09-22 00:56:30",181854,3.407,30.09,1.714,0.314,19.29,107.8666,19.42,20.35,41.46,0,110.8,13.22,20.24,352.1
"2010-09-22 00:57:00",181855,3.517,29.95,2.748,0.46,19.33,107.8666,19.42,20.32,41.44,0,110.8,13.22,20.24,352.0
"2010-09-22 00:57:30",181856,3.682,30.76,3.707,0.466,19.37,107.8681,19.42,20.32,41.33,0,110.8,13.22,20.24,352.8
"2010-09-22 00:58:00",181857,3.676,31.77,2.446,0.556,19.35,107.8672,19.42,20.32,41.33,0,110.8,13.22,20.24,353.8
"2010-09-22 00:58:30",181858,3.378,28.25,2.785,0.265,19.29,107.8687,19.42,20.32,41.46,0,110.8,13.22,20.24,350.2
"2010-09-22 00:59:00",181859,3.511,26.52,2.763,0.313,19.33,107.8644,19.41,20.32,41.53,0,110.8,13.22,20.23,348.5
"2010-09-22 00:59:30",181860,3.466,25.73,1.349,0.267,19.35,107.8598,19.4,20.3,41.5,0,110.8,13.22,20.22,347.7
"2010-09-22 01:00:00",181861,3.788,25.58,2.849,0.316,19.26,107.8467,19.37,20.29,41.7,0,110.8,13.22,20.19,347.6
"2010-09-22 01:00:30",181862,3.994,23.89,1.219,0.202,19.22,107.8362,19.34,20.27,41.75,0,110.8,13.22,20.16,345.9
"2010-09-22 01:01:00",181863,3.858,24.66,1.332,0.257,19.28,107.8389,19.35,20.23,41.72,0,110.8,13.22,20.17,346.7
"2010-09-22 01:01:30",181864,4.076,24.08,1.071,0.201,19.23,107.8379,19.34,20.23,41.84,0,110.8,13.22,20.16,346.1
"2010-09-22 01:02:00",181865,4.002,23.99,1.153,0.191,19.24,107.8139,19.28,20.22,41.91,0,110.7,13.22,20.10,346.0
"2010-09-22 01:02:30",181866,4.322,22.91,1.416,0.268,19.24,107.8085,19.27,20.22,41.91,0,110.7,13.22,20.09,344.9
"2010-09-22 01:03:00",181867,4.033,24.74,1.331,0.243,19.23,107.8085,19.27,20.19,42.03,0,110.7,13.23,20.09,346.7
"2010-09-22 01:03:30",181868,4.093,23.76,1.697,0.226,19.2,107.8064,19.26,20.17,42.28,0,110.7,13.23,20.08,345.8
"2010-09-22 01:04:00",181869,4.282,21.41,1.216,0.202,19.16,107.7829,19.2,20.16,42.62,0,110.7,13.23,20.02,343.4
"2010-09-22 01:04:30",181870,4.386,20.13,1.198,0.162,19.14,107.7787,19.19,20.13,42.98,0,110.7,13.23,20.01,342.1
"2010-09-22 01:05:00",181871,4.277,19.41,0.97,0.148,19.17,107.7565,19.14,20.1,43.08,0,110.7,13.23,19.95,341.4
"2010-09-22 01:05:30",181872,4.267,19.3,1.138,0.165,19.17,107.7513,19.12,20.08,43.27,0,110.7,13.23,19.94,341.3
"2010-09-22 01:06:00",181873,4.372,19.46,1.146,0.17,19.19,107.746,19.11,20.04,43.41,0,110.7,13.23,19.93,341.5
"2010-09-22 01:06:30",181874,4.389,20.01,1.26,0.155,19.21,107.728,19.06,20.01,43.22,0,110.7,13.23,19.88,342.0
"2010-09-22 01:07:00",181875,4.377,19.47,1.253,0.175,19.18,107.7229,19.05,20,43.51,0,110.7,13.23,19.87,341.5
"2010-09-22 01:07:30",181876,4.403,19.26,0.941,0.133,19.22,107.7245,19.05,19.99,43.53,0,110.7,13.23,19.87,341.3
"2010-09-22 01:08:00",181877,4.332,19.83,1.26,0.129,19.22,107.726,19.06,19.96,43.45,0,110.7,13.23,19.88,341.8
"2010-09-22 01:08:30",181878,4.348,20.51,0.954,0.139,19.2,107.7275,19.06,19.95,43.5,0,110.7,13.23,19.88,342.5
"2010-09-22 01:09:00",181879,4.388,20.63,1.545,0.152,19.15,107.7279,19.06,19.94,43.63,0,110.7,13.23,19.88,342.6
"2010-09-22 01:09:30",181880,4.345,20.88,1.274,0.168,19.19,107.725,19.05,19.93,43.78,0,110.7,13.23,19.87,342.9
"2010-09-22 01:10:00",181881,4.2,21.3,1.523,0.179,19.2,107.713,19.02,19.93,43.7,0,110.7,13.23,19.84,343.3
"2010-09-22 01:10:30",181882,4.282,21.5,1.382,0.171,19.19,107.7085,19.01,19.91,43.79,0,110.7,13.23,19.83,343.5
"2010-09-22 01:11:00",181883,4.133,22.07,1.327,0.172,19.19,107.7082,19.01,19.91,43.79,0,110.7,13.23,19.83,344.1
"2010-09-22 01:11:30",181884,4.004,22.66,1.233,0.204,19.25,107.7105,19.02,19.89,43.62,0,110.7,13.23,19.84,344.7
"2010-09-22 01:12:00",181885,3.902,23.97,1.19,0.169,19.22,107.7201,19.04,19.9,43.66,0,110.7,13.23,19.86,346.0
"2010-09-22 01:12:30",181886,3.947,24.03,1.549,0.182,19.2,107.728,19.06,19.9,43.55,0,110.7,13.23,19.88,346.0
"2010-09-22 01:13:00",181887,3.779,23.67,1.531,0.186,19.19,107.7333,19.08,19.91,43.57,0,110.7,13.23,19.89,345.7
"2010-09-22 01:13:30",181888,3.798,23.21,1.526,0.203,19.19,107.7305,19.07,19.9,43.63,0,110.7,13.23,19.89,345.2
"2010-09-22 01:14:00",181889,4.001,22.28,1.394,0.176,19.2,107.728,19.06,19.9,43.63,0,110.7,13.23,19.88,344.3
"2010-09-22 01:14:30",181890,4.104,21.19,1.507,0.176,19.19,107.7221,19.05,19.9,43.77,0,110.7,13.23,19.87,343.2
"2010-09-22 01:15:00",181891,4.255,20.78,1.068,0.168,19.19,107.7091,19.01,19.91,43.99,0,110.7,13.23,19.83,342.8
"2010-09-22 01:15:30",181892,4.165,21.42,1.634,0.171,19.2,107.7012,18.99,19.9,43.86,0,110.7,13.23,19.81,343.4
"2010-09-22 01:16:00",181893,4.095,20.86,1.411,0.148,19.19,107.7004,18.99,19.89,43.78,0,110.7,13.23,19.81,342.9
"2010-09-22 01:16:30",181894,4.222,19.5,0.975,0.208,19.19,107.7001,18.99,19.89,43.86,0,110.7,13.23,19.81,341.5
"2010-09-22 01:17:00",181895,4.03,22.27,2.626,0.289,19.32,107.7001,18.99,19.89,43.44,0,110.7,13.23,19.81,344.3
"2010-09-22 01:17:30",181896,3.721,22.5,4.415,0.376,19.26,107.7153,19.03,19.89,43.05,0,110.7,13.23,19.85,344.5
"2010-09-22 01:18:00",181897,4.091,23.18,3.509,0.352,19.24,107.728,19.06,19.9,43.32,0,110.7,13.23,19.88,345.2
"2010-09-22 01:18:30",181898,4.12,23.27,3.042,0.386,19.34,107.7333,19.08,19.91,42.81,0,110.7,13.23,19.89,345.3
"2010-09-22 01:19:00",181899,4.009,24.94,5.529,0.362,19.3,107.7339,19.08,19.92,42.96,0,110.7,13.23,19.90,346.9
"2010-09-22 01:19:30",181900,3.917,26.78,5.826,0.441,19.4,107.7533,19.13,19.95,42.25,0,110.7,13.23,19.95,348.8
"2010-09-22 01:20:00",181901,4.11,19.01,2.336,0.338,19.18,107.7674,19.16,19.97,43.02,0,110.7,13.24,19.98,341.0
"2010-09-22 01:20:30",181902,4.026,19.05,2.177,0.471,19.11,107.7412,19.1,19.98,43.7,0,110.7,13.24,19.91,341.0
"2010-09-22 01:21:00",181903,4.021,19.86,2.24,0.337,19.17,107.7339,19.08,19.96,43.49,0,110.7,13.24,19.90,341.9
"2010-09-22 01:21:30",181904,4.194,22.61,2.207,0.279,19.33,107.7339,19.08,19.94,42.91,0,110.7,13.24,19.90,344.6
"2010-09-22 01:22:00",181905,4.006,21.79,2.675,0.192,19.15,107.7339,19.08,19.95,43.22,0,110.7,13.24,19.90,343.8
"2010-09-22 01:22:30",181906,3.674,17.11,2.8,0.522,19.07,107.7195,19.04,19.94,43.89,0,110.7,13.24,19.86,339.1
"2010-09-22 01:23:00",181907,3.693,16.93,2.102,0.474,19.08,107.7001,18.99,19.93,44.1,0,110.7,13.24,19.81,338.9
"2010-09-22 01:23:30",181908,4.285,20.04,2.407,0.343,19.17,107.7001,18.99,19.89,44,0,110.7,13.24,19.81,342.0
"2010-09-22 01:24:00",181909,4.158,18.91,3.288,0.563,19.19,107.6987,18.99,19.88,43.96,0,110.7,13.24,19.81,340.9
"2010-09-22 01:24:30",181910,3.956,18.7,3.335,0.391,19.14,107.6877,18.96,19.87,44.15,0,110.7,13.24,19.78,340.7
"2010-09-22 01:25:00",181911,3.759,14.49,4.043,0.662,19.09,107.6686,18.91,19.85,44.38,0,110.7,13.24,19.73,336.5
"2010-09-22 01:25:30",181912,3.527,11.5,6.413,0.644,19.13,107.6663,18.9,19.82,44.4,0,110.7,13.24,19.72,333.5
"2010-09-22 01:26:00",181913,3.851,17.18,2.364,0.485,19.05,107.6658,18.9,19.82,44.57,0,110.7,13.24,19.72,339.2
"2010-09-22 01:26:30",181914,4.06,18.19,2.158,0.301,19.11,107.6556,18.88,19.79,44.67,0,110.7,13.24,19.69,340.2
"2010-09-22 01:27:00",181915,3.945,18.04,5.207,0.506,19.2,107.6559,18.88,19.8,44.3,0,110.7,13.24,19.69,340.0
"2010-09-22 01:27:30",181916,4.225,21.69,4.508,0.47,19.31,107.6653,18.9,19.78,43.83,0,110.7,13.25,19.72,343.7
"2010-09-22 01:28:00",181917,4.396,18.7,2.284,0.386,19.16,107.6672,18.91,19.81,44.21,0,110.7,13.25,19.72,340.7
"2010-09-22 01:28:30",181918,4.09,16.03,3.667,0.71,19.15,107.6669,18.91,19.81,44.23,0,110.7,13.25,19.72,338.0
"2010-09-22 01:29:00",181919,3.768,19.23,6.682,0.696,19.17,107.6666,18.9,19.8,44.15,0,110.7,13.25,19.72,341.2
"2010-09-22 01:29:30",181920,3.939,17.63,3.578,0.761,19.17,107.6684,18.91,19.81,44.15,0,110.7,13.25,19.73,339.6
"2010-09-22 01:30:00",181921,4.283,18.11,3.374,0.735,19.11,107.6684,18.91,19.79,44.34,0,110.7,13.25,19.73,340.1
"2010-09-22 01:30:30",181922,3.419,13.77,7.736,0.663,19.12,107.6629,18.89,19.79,44.45,0,110.7,13.24,19.71,335.8
"2010-09-22 01:31:00",181923,4.45,19.59,1.467,0.456,19.14,107.6573,18.88,19.78,44.36,0,110.7,13.24,19.70,341.6
"2010-09-22 01:31:30",181924,4.465,22.71,3.678,0.473,19.18,107.6503,18.86,19.78,44.26,0,110.7,13.24,19.68,344.7
"2010-09-22 01:32:00",181925,4.613,26.42,3.535,0.478,19.21,107.6572,18.88,19.77,43.94,0,110.7,13.23,19.70,348.4
"2010-09-22 01:32:30",181926,4.596,20.13,2.469,0.359,19.2,107.6684,18.91,19.77,44.08,0,110.7,13.23,19.73,342.1
"2010-09-22 01:33:00",181927,4.386,19.07,1.552,0.401,19.14,107.6678,18.91,19.77,44.24,0,110.7,13.23,19.73,341.1
"2010-09-22 01:33:30",181928,4.64,19.9,2.408,0.475,19.14,107.6572,18.88,19.76,44.32,0,110.7,13.24,19.70,341.9
"2010-09-22 01:34:00",181929,5.148,21.81,1.657,0.408,19.19,107.651,18.86,19.74,44.13,0,110.7,13.24,19.68,343.8
"2010-09-22 01:34:30",181930,4.84,22.12,3.238,0.452,19.17,107.6529,18.87,19.76,44.09,0,110.7,13.24,19.69,344.1
"2010-09-22 01:35:00",181931,4.519,22.87,3.022,0.379,19.23,107.6566,18.88,19.76,43.84,0,110.7,13.24,19.70,344.9
"2010-09-22 01:35:30",181932,4.313,23.62,3.764,0.458,19.23,107.6679,18.91,19.77,43.84,0,110.7,13.24,19.73,345.6
"2010-09-22 01:36:00",181933,4.974,24.43,3.747,0.438,19.33,107.688,18.96,19.78,43.4,0,110.7,13.25,19.78,346.4
"2010-09-22 01:36:30",181934,4.872,24.21,3.037,0.421,19.33,107.6915,18.97,19.8,43.16,0,110.7,13.25,19.79,346.2
"2010-09-22 01:37:00",181935,4.688,25.29,3.815,0.541,19.33,107.7079,19.01,19.81,43.08,0,110.7,13.25,19.83,347.3
"2010-09-22 01:37:30",181936,4.706,22.52,4.242,0.533,19.19,107.7184,19.04,19.84,43.41,0,110.7,13.25,19.86,344.5
"2010-09-22 01:38:00",181937,4.617,22.89,4.598,0.355,19.23,107.7243,19.05,19.85,43.25,0,110.7,13.25,19.87,344.9
"2010-09-22 01:38:30",181938,4.588,22.85,3.997,0.372,19.18,107.7154,19.03,19.84,43.4,0,110.7,13.25,19.85,344.9
"2010-09-22 01:39:00",181939,4.547,21.81,3.317,0.537,19.14,107.7043,19,19.85,43.53,0,110.7,13.25,19.82,343.8
"2010-09-22 01:39:30",181940,4.241,20.17,5.609,0.9,19.22,107.6972,18.98,19.83,43.46,0,110.7,13.25,19.80,342.2
"2010-09-22 01:40:00",181941,4.619,24.26,4.607,0.616,19.3,107.7008,18.99,19.83,43.03,0,110.7,13.25,19.81,346.3
"2010-09-22 01:40:30",181942,4.16,15.32,3.594,0.886,19.17,107.706,19.01,19.85,43.57,0,110.7,13.25,19.82,337.3
"2010-09-22 01:41:00",181943,4.666,21.43,4.154,0.539,19.2,107.6994,18.99,19.86,43.5,0,110.7,13.25,19.81,343.4
"2010-09-22 01:41:30",181944,4.368,21.64,3.745,0.465,19.21,107.7012,18.99,19.85,43.4,0,110.7,13.25,19.81,343.6
"2010-09-22 01:42:00",181945,4.665,22.16,4.05,0.513,19.25,107.7018,18.99,19.84,43.11,0,110.7,13.25,19.81,344.2
"2010-09-22 01:42:30",181946,3.607,15.69,4.606,0.619,19.16,107.7015,18.99,19.85,43.42,0,110.7,13.25,19.81,337.7
"2010-09-22 01:43:00",181947,3.749,9.43,6.473,0.923,19.21,107.7021,19,19.86,43.45,0,110.7,13.25,19.81,331.4
"2010-09-22 01:43:30",181948,3.662,16.62,6.547,0.909,19.18,107.7024,19,19.84,43.49,0,110.7,13.25,19.81,338.6
"2010-09-22 01:44:00",181949,4.078,15.52,8.16,1.161,19.18,107.7021,19,19.84,43.45,0,110.7,13.25,19.81,337.5
"2010-09-22 01:44:30",181950,3.701,15.26,5.026,1.037,19.17,107.7018,18.99,19.84,43.56,0,110.7,13.25,19.81,337.3
"2010-09-22 01:45:00",181951,4.324,10.42,6.985,0.909,19.2,107.7027,19,19.83,43.59,0,110.7,13.25,19.82,332.4
"2010-09-22 01:45:30",181952,4.092,22.52,2.866,0.468,19.28,107.7027,19,19.83,43.19,0,110.7,13.25,19.82,344.5
"2010-09-22 01:46:00",181953,4.328,19.85,2.284,0.443,19.23,107.7027,19,19.83,43.2,0,110.7,13.25,19.82,341.9
"2010-09-22 01:46:30",181954,4.291,19.37,4.848,0.501,19.26,107.7027,19,19.84,42.92,0,110.7,13.25,19.82,341.4
"2010-09-22 01:47:00",181955,4.534,21.49,4.531,0.407,19.31,107.7086,19.01,19.85,42.68,0,110.7,13.25,19.83,343.5
"2010-09-22 01:47:30",181956,3.466,10.07,7.513,0.81,19.25,107.7185,19.04,19.86,43.05,0,110.7,13.25,19.86,332.1
"2010-09-22 01:48:00",181957,3.742,16.57,3.756,0.65,19.27,107.7162,19.03,19.88,43.01,0,110.7,13.25,19.85,338.6